Zurück zum Katalog

GORIZONT 19

AktivKommunikationGEO
NORAD 20263·PAYLOAD·🇷🇺 Russia

Gestartet Sep 28, 1989 von Baikonur Cosmodrome

Loading…

TLE

AktuellSource: Space-Track

Epoche: Sep 13, 2026, 19:12 UTC

1 20263U 89081A   26256.80066150  .00000097  00000-0  00000-0 0  9992
2 20263  11.9821 332.9043 0006096 281.1493  75.3592  1.00213097 48220

Verfolge GORIZONT 19 in Echtzeit mit AllMySat

Download on the App Store